Regional Weather Roundup
Issued by NWS

Home | Current Version | Previous Version | Text Only | Print | Product List | Glossary On
Versions: 1 2 3 4 5 6 7 8 9 10 11 12 13 14 15 16 17 18 19 20 21 22 23 24 25 26 27 28 29 30 31 32 33 34 35 36 37 38 39 40 41 42 43 44 45 46 47 48 49 50
000
ASUS44 KBMX 261310
RWRAL

ALABAMA REGIONAL WEATHER ROUNDUP
NATIONAL WEATHER SERVICE BIRMINGHAM AL
700 AM CST WED NOV 26 2014

NOTE: "FAIR" INDICATES FEW OR NO CLOUDS BELOW 12,000 FEET
WITH NO SIGNIFICANT WEATHER AND/OR OBSTRUCTIONS TO VISIBILITY.

THE REMARK "TC" DENOTES TEMPERATURE IN DEGREES CELSIUS.

ALZ001>011-014-016>018-020-261400-
NORTH ALABAMA

CITY           SKY/WX    TMP DP  RH WIND       PRES   REMARKS
MUSCLE SHOALS  CLEAR     27  23  85 CALM      30.17R
HUNTSVILLE     PTCLDY    32  27  81 CALM      30.14R
DECATUR        CLEAR     30  26  85 CALM      30.15R
HALEYVILLE     FAIR      25  25 100 CALM      30.16R
GADSDEN        CLEAR     36  25  64 CALM      30.13R
$$

ALZ012-013-022-023-030>036-040>044-261400-
WEST CENTRAL ALABAMA

CITY           SKY/WX    TMP DP  RH WIND       PRES   REMARKS
TUSCALOOSA     CLEAR     30  27  88 CALM      30.19R
$$

ALZ015-024>027-033>036-040>044-261400-
CENTRAL ALABAMA

CITY           SKY/WX    TMP DP  RH WIND       PRES   REMARKS
BIRMINGHAM     CLEAR     34  28  79 E3        30.16R
MONTGOMERY     CLEAR     37  31  78 W5        30.17R WCI  33
SHELBY CO ARPT CLEAR     36  29  75 CALM      30.14S
MAXWELL AFB    CLEAR     39  31  73 NW5       30.16R
GREENVILLE     FAIR      38  29  70 NW6       30.17R WCI  33
$$

ALZ019-021-028-029-037-038-045>048-261400-
EAST CENTRAL ALABAMA

CITY           SKY/WX    TMP DP  RH WIND       PRES   REMARKS
ANNISTON       CLEAR     36  28  73 SW10      30.13R WCI  28
ALEXANDER CITY CLEAR     39  29  68 NW3       30.12R
AUBURN         CLEAR     37  27  65 NW8       30.12R WCI  31
$$

ALZ051>064-261400-
SOUTHWEST ALABAMA

CITY           SKY/WX    TMP DP  RH WIND       PRES   REMARKS
MOBILE         CLEAR     34  29  82 NW3       30.23R
BROOKLEY FIELD CLEAR     38  29  70 NW6       30.24R WCI  33
EVERGREEN      CLEAR     37  29  72 N3        30.20R
$$

ALZ049-050-065>069-261400-
SOUTHEAST ALABAMA

CITY           SKY/WX    TMP DP  RH WIND       PRES   REMARKS
DOTHAN         CLEAR     41  36  82 W9        30.17R
OZARK          CLEAR     40  33  76 W8        30.16R WCI  34
TROY           CLEAR     39  31  72 W6        30.16R WCI  35
EUFAULA        FAIR      42  41  96 W3        30.12R
$$



USA.gov is the U.S. government's official web portal to all federal, state and local government web resources and services.